Wind_Speed
13 14 14 14 15 15 13 12 11 9 8 7 7 6 6 6 6 5 5 5 4 3 3 3 2 3 3 4 5 6 6 6 6 6 7 8 9 8 8 8 8 9 10
14 14 14 15 15 15 14 12 12 10 9 8 7 6 6 7 6 6 4 4 4 4 4 4 4 5 5 6 7 7 8 8 8 8 8 9 9 9 9 9 9 9 10
13 13 14 14 15 15 15 13 12 11 9 8 7 7 7 7 7 6 5 4 4 4 5 5 5 6 6 7 7 8 8 9 9 9 10 10 10 10 10 10 10 10 11
12 13 13 13 14 15 15 14 12 12 12 10 9 8 7 7 7 6 5 5 5 5 6 6 5 6 7 7 8 8 9 9 10 10 10 11 11 11 11 12 12 12 13
12 12 13 13 14 14 15 15 14 13 12 11 10 9 8 8 7 7 6 5 6 6 6 6 6 7 7 8 8 9 9 10 11 11 11 11 11 11 11 12 13 14 15
11 12 12 13 14 14 14 15 14 14 13 11 11 11 10 9 8 7 6 6 6 6 7 7 7 8 8 8 9 9 10 11 11 11 11 11 11 12 13 13 14 15 15
11 11 12 12 13 14 14 14 14 13 12 12 11 11 11 10 9 8 7 7 7 7 8 8 8 9 9 9 9 9 10 10 11 11 12 13 13 13 14 14 15 15 16
11 11 12 12 13 14 14 14 14 13 13 12 11 11 11 11 10 9 8 8 8 8 8 9 9 10 10 10 10 10 11 11 12 12 13 14 14 14 14 15 15 16 16
10 11 12 13 13 14 14 14 14 13 13 13 13 12 12 11 11 10 9 9 9 9 9 10 10 10 10 11 10 11 11 12 12 12 13 14 14 15 15 16 16 16 16
10 11 11 13 13 13 14 14 14 14 14 14 14 13 13 12 12 11 10 10 10 10 11 10 11 11 10 10 11 12 12 12 12 13 14 15 16 16 17 16 16 16 16
12 11 12 13 13 13 13 14 14 15 15 15 14 14 13 13 13 12 11 11 11 11 11 11 11 11 11 11 12 12 13 13 14 15 15 16 17 17 17 17 17 17 17
13 13 13 13 12 13 13 14 15 15 15 15 15 15 14 14 13 12 12 12 12 12 12 11 12 12 12 12 12 12 13 14 14 15 16 17 17 17 17 17 17 17 18
13 13 13 13 12 13 14 14 15 15 15 15 15 15 15 14 14 13 13 13 12 12 12 12 12 13 13 13 13 14 14 15 15 16 16 16 17 17 17 17 17 18 19
14 13 13 13 13 14 14 14 14 15 16 16 16 16 16 16 15 15 14 14 13 13 13 13 13 14 14 14 15 15 15 16 16 16 16 17 17 17 18 18 19 19 20
14 14 14 14 14 15 15 15 15 16 16 16 17 17 18 17 16 16 15 15 15 15 15 14 14 14 14 14 15 15 15 16 16 17 17 18 18 18 19 19 20 20 21
15 15 15 15 15 15 16 16 16 17 17 17 18 19 19 19 17 17 17 16 15 15 16 15 15 15 15 15 15 16 16 16 17 18 18 19 19 20 20 20 20 21 22
16 16 16 16 16 16 17 17 18 18 18 18 19 20 20 19 18 18 18 18 16 16 16 17 16 16 17 17 16 17 17 17 18 18 19 20 20 20 20 21 21 22 22
18 18 18 17 17 18 18 18 19 19 19 19 20 20 20 19 19 19 19 18 17 17 18 18 17 17 18 18 18 18 18 19 19 20 21 21 21 21 21 22 22 23 23
21 20 19 19 18 19 19 19 19 20 20 21 21 22 21 20 19 19 20 19 18 18 18 18 18 18 18 18 19 19 19 19 20 20 21 21 21 22 22 23 23 24 24
21 21 21 20 20 20 20 20 20 21 21 22 22 22 21 20 20 20 20 20 20 20 19 19 19 19 19 19 19 20 20 20 20 21 22 22 22 23 23 24 24 24 24
22 22 23 22 21 21 21 22 22 22 23 23 23 22 21 21 20 20 20 21 21 21 20 20 20 20 20 20 20 21 21 21 21 22 23 23 23 24 24 25 25 25 25
23 23 23 23 23 23 23 23 24 24 24 24 23 22 22 21 21 21 21 21 22 22 21 21 20 20 21 21 22 22 22 23 23 24 24 24 25 25 25 25 25 25 25
25 25 25 25 24 24 25 25 24 24 24 23 23 22 22 22 22 22 22 22 22 22 22 21 21 21 22 22 23 23 24 24 24 25 25 25 26 26 26 26 26 26 26
26 26 26 26 26 26 25 25 25 24 24 24 24 23 23 24 24 23 23 22 22 23 22 22 23 23 23 23 24 25 25 25 25 26 26 26 26 27 27 27 27 27 28
27 27 27 27 26 26 26 26 26 25 25 25 25 25 25 25 25 25 24 24 24 24 24 23 23 24 24 24 25 26 26 26 26 27 27 28 28 27 27 28 28 29 29
28 28 28 28 28 27 27 27 27 27 26 26 26 26 27 27 26 26 26 26 26 26 26 25 25 25 26 26 26 27 27 28 28 28 28 29 29 29 28 29 29 29 30
Wind_Direction
24 21 19 17 15 13 11 13 14 15 13 6 0 1 358 358 356 348 343 353 353 342 326 326 328 312 297 293 288 285 287 290 295 298 297 298 300 297 301 302 303 302 298
18 19 17 16 14 13 12 12 11 12 11 8 3 358 356 354 351 349 344 344 346 337 328 315 314 309 303 298 293 290 290 292 294 296 299 304 305 299 304 307 306 299 298
11 13 13 14 12 11 12 11 9 9 8 7 2 356 352 351 348 346 340 334 333 324 316 314 309 302 299 300 298 296 292 288 294 298 299 299 298 302 302 303 304 300 300
3 7 10 11 11 11 11 9 9 6 4 0 357 354 352 349 345 344 334 323 319 315 315 314 312 304 298 300 300 294 291 293 299 300 299 298 299 301 304 305 305 303 303
358 1 5 8 8 9 9 9 7 4 359 357 357 355 352 348 343 337 328 321 318 313 314 313 314 307 298 295 297 295 292 294 297 299 300 299 300 302 302 303 304 305 306
348 353 358 1 3 4 4 4 3 3 0 357 356 355 352 347 341 333 324 320 317 313 311 310 307 304 301 297 295 298 295 295 294 298 300 301 303 304 302 304 303 302 302
343 345 348 351 355 359 360 0 360 359 357 356 353 354 353 348 344 336 325 320 316 313 313 310 304 303 302 298 294 298 300 299 301 303 305 305 303 304 305 305 304 303 302
335 340 342 344 349 353 355 357 356 355 354 354 353 352 353 353 348 339 332 325 318 316 318 315 308 305 305 306 302 298 298 301 303 305 306 306 305 305 306 306 306 306 305
325 331 338 340 343 347 350 355 357 357 355 353 350 348 348 349 346 341 335 332 324 321 320 314 311 311 309 309 307 305 302 300 303 305 306 307 306 306 306 306 305 305 305
313 320 329 336 337 341 346 352 357 358 356 354 351 347 347 346 343 338 336 332 326 321 319 314 309 308 309 309 310 310 311 310 309 308 308 308 307 307 307 307 305 304 305
306 312 324 327 331 334 338 345 350 353 353 351 350 349 347 343 339 338 336 333 328 322 319 314 313 310 309 311 310 311 313 312 309 309 308 308 307 307 307 307 304 303 305
301 310 314 318 324 331 336 339 344 346 347 347 348 347 344 343 339 334 332 332 330 326 322 319 316 316 314 312 313 313 313 313 313 313 312 309 307 308 307 305 305 305 306
291 298 304 310 317 325 329 332 337 340 341 342 343 342 342 343 342 336 330 329 328 326 322 318 315 316 316 315 315 315 314 314 314 316 316 314 311 309 308 306 305 305 305
286 291 296 303 312 318 322 326 331 334 334 335 337 338 338 338 336 335 331 327 325 321 319 316 315 315 314 312 312 312 314 314 313 314 315 315 313 311 309 307 305 304 304
279 283 288 296 306 312 316 321 325 328 328 329 331 333 332 331 330 330 331 333 333 328 324 320 317 316 317 316 316 315 316 316 315 314 314 314 312 310 308 306 305 304 304
275 277 280 288 299 306 312 315 318 321 323 324 325 327 328 328 328 329 329 329 330 330 329 327 324 322 322 321 318 317 316 315 315 314 314 314 313 312 309 308 307 307 306
271 273 275 282 290 298 305 311 313 315 318 320 321 323 324 326 326 324 325 325 327 328 327 325 324 322 320 318 317 316 316 315 315 315 314 314 312 313 313 311 311 311 309
268 270 273 279 285 294 301 304 307 310 313 317 319 320 320 320 322 321 321 323 323 325 324 321 320 318 317 317 317 316 316 315 315 314 314 313 312 313 312 312 312 312 311
264 267 271 276 282 289 296 301 303 307 310 313 314 315 315 315 317 318 320 320 321 323 323 320 318 318 318 318 318 318 316 316 315 315 315 314 314 314 314 313 312 311 311
262 266 271 275 279 285 292 298 302 304 307 309 310 311 311 312 313 315 316 319 320 320 320 318 317 317 317 317 317 317 316 316 316 315 315 315 314 314 315 314 313 311 310
263 267 269 272 275 281 287 294 298 301 304 305 305 306 307 309 311 312 314 317 318 318 318 317 316 315 315 316 316 316 315 315 315 315 315 315 314 315 315 315 314 312 311
262 264 265 268 273 279 284 291 294 296 299 300 301 303 303 305 307 311 312 315 316 316 316 315 314 314 314 314 314 314 314 314 313 313 314 314 314 314 314 314 313 313 313
260 261 263 266 271 277 282 286 289 291 295 298 300 301 303 303 305 307 310 312 312 313 313 312 312 312 312 312 313 313 312 312 312 312 313 313 314 314 314 313 312 312 312
259 260 262 265 270 275 280 284 286 289 294 297 298 298 299 302 303 304 306 309 311 312 312 311 310 310 310 311 311 311 311 311 312 312 313 314 314 313 313 312 312 311 311
257 259 261 264 269 274 277 281 283 286 290 293 295 297 297 298 301 301 304 306 308 310 311 310 311 311 310 310 309 309 310 310 310 311 311 312 311 311 311 311 310 310 309
257 258 261 264 268 272 276 278 280 283 287 290 291 295 296 299 300 300 301 302 305 307 307 308 308 309 309 308 308 308 309 310 310 309 310 310 309 309 309 309 310 310 309
Height
5924 5922 5921 5919 5917 5915 5913 5911 5910 5909 5908 5907 5906 5906 5905 5904 5903 5903 5902 5902 5901 5901 5901 5902 5902 5902 5902 5902 5902 5902 5902 5902 5901 5901 5901 5900 5900 5899 5899 5898 5898 5897 5897
5926 5924 5922 5920 5918 5916 5914 5912 5911 5910 5909 5907 5907 5906 5905 5904 5903 5902 5902 5902 5902 5901 5901 5901 5901 5901 5901 5901 5901 5901 5901 5900 5900 5900 5899 5899 5899 5897 5897 5896 5895 5895 5894
5927 5925 5923 5921 5919 5917 5915 5913 5912 5910 5909 5908 5907 5906 5905 5904 5903 5902 5902 5902 5901 5901 5901 5901 5901 5900 5900 5900 5899 5899 5899 5898 5898 5898 5898 5897 5896 5895 5895 5894 5893 5893 5891
5927 5926 5924 5922 5920 5918 5916 5914 5913 5911 5909 5908 5907 5906 5905 5904 5903 5902 5902 5901 5901 5901 5901 5900 5900 5899 5899 5898 5898 5897 5897 5896 5896 5896 5895 5895 5894 5893 5892 5891 5890 5890 5889
5928 5926 5925 5923 5921 5919 5917 5915 5913 5911 5910 5908 5907 5906 5905 5904 5903 5902 5901 5901 5900 5900 5900 5899 5899 5898 5898 5897 5896 5896 5895 5895 5894 5893 5893 5892 5891 5890 5890 5889 5888 5886 5885
5928 5927 5925 5923 5922 5920 5918 5916 5914 5912 5910 5908 5907 5906 5904 5903 5902 5901 5901 5900 5900 5899 5898 5898 5897 5897 5896 5896 5895 5894 5893 5892 5892 5891 5890 5889 5888 5888 5887 5886 5885 5883 5882
5929 5927 5925 5924 5922 5921 5918 5916 5914 5912 5910 5909 5907 5906 5904 5902 5901 5900 5900 5899 5899 5898 5897 5896 5896 5895 5894 5893 5893 5892 5891 5890 5889 5889 5888 5887 5886 5885 5884 5883 5882 5880 5879
5928 5927 5925 5924 5922 5921 5919 5916 5914 5912 5910 5909 5907 5905 5903 5902 5900 5899 5898 5898 5897 5896 5896 5895 5894 5893 5892 5891 5890 5889 5889 5888 5887 5886 5885 5884 5883 5882 5881 5880 5878 5877 5875
5927 5926 5925 5923 5922 5921 5919 5916 5913 5912 5911 5909 5907 5905 5903 5901 5899 5898 5897 5896 5895 5895 5894 5893 5892 5891 5890 5890 5889 5887 5887 5886 5884 5883 5882 5881 5880 5878 5877 5876 5875 5874 5872
5926 5925 5924 5923 5921 5920 5918 5916 5914 5912 5910 5908 5906 5904 5902 5900 5898 5897 5896 5895 5894 5893 5892 5891 5890 5889 5888 5887 5886 5885 5884 5883 5882 5881 5879 5878 5876 5875 5873 5872 5871 5870 5868
5923 5922 5922 5922 5920 5919 5918 5916 5914 5912 5910 5908 5906 5903 5901 5899 5897 5896 5895 5894 5893 5891 5890 5889 5888 5887 5886 5885 5884 5883 5882 5880 5879 5878 5876 5875 5873 5871 5870 5868 5867 5866 5864
5921 5921 5921 5920 5919 5917 5916 5915 5913 5911 5909 5907 5905 5903 5901 5899 5897 5895 5894 5893 5891 5890 5889 5887 5886 5885 5884 5883 5881 5880 5879 5878 5876 5875 5873 5871 5869 5868 5866 5864 5863 5861 5860
5920 5920 5919 5918 5917 5916 5915 5914 5913 5911 5909 5907 5904 5902 5900 5898 5896 5894 5893 5891 5890 5888 5887 5885 5884 5883 5881 5880 5879 5878 5876 5875 5873 5872 5870 5868 5866 5864 5862 5861 5859 5857 5856
5918 5918 5917 5916 5915 5915 5914 5913 5911 5909 5908 5906 5904 5901 5899 5897 5895 5893 5891 5889 5888 5886 5884 5883 5882 5880 5879 5877 5876 5875 5874 5872 5870 5868 5867 5865 5863 5861 5859 5857 5855 5853 5851
5916 5915 5915 5914 5914 5913 5912 5911 5909 5908 5906 5904 5902 5900 5897 5895 5894 5891 5889 5888 5886 5884 5882 5881 5879 5878 5876 5875 5873 5872 5870 5869 5867 5865 5863 5861 5859 5856 5854 5852 5850 5848 5846
5912 5912 5912 5912 5911 5910 5909 5908 5907 5906 5904 5902 5900 5898 5896 5893 5891 5890 5888 5886 5884 5882 5881 5879 5877 5875 5874 5872 5870 5869 5867 5865 5864 5862 5860 5858 5855 5853 5850 5848 5845 5843 5841
5908 5909 5909 5909 5908 5908 5907 5906 5904 5903 5901 5900 5898 5896 5893 5891 5889 5888 5886 5884 5882 5880 5878 5877 5875 5873 5871 5869 5868 5866 5864 5862 5860 5858 5856 5854 5851 5848 5846 5843 5841 5838 5836
5904 5905 5905 5906 5905 5905 5904 5903 5902 5900 5899 5897 5895 5893 5891 5889 5887 5885 5883 5881 5880 5878 5876 5874 5872 5870 5868 5866 5864 5862 5860 5858 5856 5854 5852 5849 5847 5844 5841 5839 5836 5833 5831
5901 5901 5901 5901 5902 5901 5900 5899 5898 5897 5895 5894 5892 5890 5888 5886 5884 5882 5880 5878 5876 5875 5873 5871 5869 5867 5865 5863 5861 5859 5857 5854 5852 5850 5847 5845 5842 5840 5837 5834 5832 5829 5826
5895 5895 5896 5897 5897 5897 5896 5896 5894 5893 5892 5890 5888 5887 5885 5883 5881 5879 5877 5875 5873 5871 5869 5867 5865 5863 5861 5859 5857 5855 5853 5851 5848 5846 5843 5840 5838 5835 5832 5829 5826 5823 5821
5891 5891 5892 5892 5893 5892 5892 5891 5890 5889 5887 5886 5884 5883 5881 5879 5877 5876 5874 5872 5870 5868 5866 5864 5861 5859 5857 5855 5853 5851 5848 5846 5844 5841 5839 5836 5833 5830 5827 5824 5821 5818 5815
5886 5886 5887 5887 5887 5887 5887 5886 5885 5884 5883 5882 5880 5879 5877 5875 5873 5872 5870 5868 5866 5864 5862 5859 5857 5855 5853 5851 5849 5846 5844 5841 5839 5836 5834 5831 5828 5825 5822 5819 5816 5813 5810
5880 5880 5881 5882 5882 5882 5882 5881 5880 5879 5878 5877 5875 5874 5872 5871 5869 5867 5865 5863 5861 5859 5857 5855 5853 5851 5849 5846 5844 5841 5839 5836 5834 5831 5828 5826 5823 5820 5817 5813 5810 5807 5804
5873 5874 5875 5876 5876 5877 5876 5876 5875 5874 5873 5872 5870 5869 5867 5866 5864 5863 5861 5859 5857 5855 5853 5850 5848 5846 5844 5841 5839 5836 5834 5831 5829 5826 5823 5820 5817 5814 5811 5808 5804 5801 5798
5866 5867 5869 5869 5870 5870 5871 5870 5869 5868 5867 5866 5865 5864 5862 5860 5859 5857 5856 5854 5852 5850 5848 5845 5843 5841 5839 5836 5834 5831 5828 5826 5823 5820 5817 5814 5811 5808 5805 5802 5798 5795 5791
5860 5861 5862 5863 5864 5864 5864 5864 5863 5862 5861 5860 5859 5858 5857 5855 5853 5851 5850 5848 5846 5844 5842 5840 5838 5835 5833 5830 5828 5825 5822 5819 5817 5814 5811 5808 5804 5801 5798 5795 5792 5788 5784